Terminal Aerodrome Forecast
Issued by NWS Mt. Holly, NJ

Home | Current Version | Previous Version | Text Only | Print | Product List | Glossary On
Versions: 1 2 3 4 5 6 7 8 9 10 11 12 13 14 15 16 17 18 19 20 21 22 23 24 25 26 27 28 29 30 31 32 33 34 35 36 37 38 39 40 41 42 43 44 45 46 47 48 49 50
000
FTAK31 PANC 271129
TAFABE
TAF
PABE 271129Z 2712/2812 15014KT P6SM FEW015 BKN110 WS020/20040KT
     FM271400 14014KT P6SM SCT025 BKN110 WS020/19045KT
     FM280200 11016G25KT P6SM BKN025 WS020/16050KT
     FM280700 12025G35KT P6SM BKN025=

USA.gov is the U.S. government's official web portal to all federal, state and local government web resources and services.